QPF
0.00 0.00 0.00 0.00 0.00 0.00 0.00 0.00 0.00 0.00 0.00 0.00 0.00 0.00 0.00 0.00 0.00 0.00 0.00 0.00 0.00 0.00 0.00 0.00 0.00 0.00 0.00 0.00 0.00 0.00 0.00 0.00 0.00 0.00 0.00 0.00 0.00 0.00 0.00 0.00 0.00 0.00 0.00 0.00 0.00
0.00 0.00 0.00 0.00 0.00 0.00 0.00 0.00 0.00 0.00 0.00 0.00 0.00 0.00 0.00 0.00 0.00 0.00 0.00 0.00 0.00 0.00 0.00 0.00 0.00 0.00 0.00 0.00 0.00 0.00 0.00 0.00 0.00 0.00 0.00 0.00 0.00 0.00 0.00 0.00 0.00 0.00 0.00 0.00 0.00
0.00 0.00 0.00 0.00 0.00 0.00 0.00 0.00 0.00 0.00 0.00 0.00 0.00 0.00 0.00 0.00 0.00 0.00 0.00 0.00 0.00 0.00 0.00 0.00 0.00 0.00 0.00 0.00 0.00 0.00 0.00 0.00 0.00 0.00 0.00 0.00 0.00 0.00 0.00 0.00 0.00 0.00 0.00 0.00 0.00
0.00 0.00 0.00 0.00 0.00 0.00 0.00 0.00 0.00 0.00 0.00 0.00 0.00 0.00 0.00 0.00 0.00 0.00 0.00 0.00 0.00 0.00 0.00 0.00 0.00 0.00 0.00 0.00 0.00 0.00 0.00 0.00 0.00 0.00 0.00 0.00 0.00 0.00 0.00 0.00 0.00 0.00 0.00 0.00 0.00
0.00 0.00 0.00 0.00 0.00 0.00 0.00 0.00 0.00 0.00 0.00 0.00 0.00 0.00 0.00 0.00 0.00 0.00 0.00 0.00 0.00 0.00 0.00 0.00 0.00 0.00 0.00 0.00 0.00 0.00 0.00 0.00 0.00 0.00 0.00 0.00 0.00 0.00 0.00 0.00 0.00 0.00 0.00 0.00 0.00
0.00 0.00 0.00 0.00 0.00 0.00 0.00 0.00 0.00 0.00 0.00 0.00 0.00 0.00 0.00 0.00 0.00 0.00 0.00 0.00 0.00 0.00 0.00 0.00 0.00 0.00 0.00 0.00 0.00 0.00 0.00 0.00 0.00 0.00 0.00 0.00 0.00 0.00 0.00 0.00 0.00 0.00 0.00 0.00 0.00
0.00 0.00 0.00 0.00 0.00 0.00 0.00 0.00 0.00 0.00 0.00 0.00 0.00 0.00 0.00 0.00 0.00 0.00 0.00 0.00 0.00 0.00 0.00 0.00 0.00 0.00 0.00 0.00 0.00 0.00 0.00 0.00 0.00 0.00 0.00 0.00 0.00 0.00 0.00 0.00 0.00 0.00 0.00 0.00 0.00
0.00 0.00 0.00 0.00 0.00 0.00 0.00 0.00 0.00 0.00 0.00 0.00 0.00 0.00 0.00 0.00 0.00 0.00 0.00 0.00 0.00 0.00 0.00 0.00 0.00 0.00 0.00 0.00 0.00 0.00 0.00 0.00 0.00 0.00 0.00 0.00 0.00 0.00 0.00 0.00 0.00 0.00 0.00 0.00 0.00
0.00 0.00 0.00 0.00 0.00 0.00 0.00 0.00 0.00 0.00 0.00 0.00 0.00 0.00 0.00 0.00 0.00 0.00 0.00 0.00 0.00 0.00 0.00 0.00 0.00 0.00 0.00 0.00 0.00 0.00 0.00 0.00 0.00 0.00 0.00 0.00 0.00 0.00 0.00 0.00 0.00 0.00 0.00 0.00 0.00
0.00 0.00 0.00 0.00 0.00 0.00 0.00 0.00 0.00 0.00 0.00 0.00 0.00 0.00 0.00 0.00 0.00 0.00 0.00 0.00 0.00 0.00 0.00 0.00 0.00 0.00 0.00 0.00 0.00 0.00 0.00 0.00 0.00 0.00 0.00 0.00 0.00 0.00 0.00 0.00 0.00 0.00 0.00 0.00 0.00
0.00 0.00 0.00 0.00 0.00 0.00 0.00 0.00 0.00 0.00 0.00 0.00 0.00 0.00 0.00 0.00 0.00 0.00 0.00 0.00 0.00 0.00 0.00 0.00 0.00 0.00 0.00 0.00 0.00 0.00 0.00 0.00 0.00 0.00 0.00 0.00 0.00 0.00 0.00 0.00 0.00 0.00 0.00 0.00 0.00
0.00 0.00 0.00 0.00 0.00 0.00 0.00 0.00 0.00 0.00 0.00 0.00 0.00 0.00 0.00 0.00 0.00 0.00 0.00 0.00 0.00 0.00 0.00 0.00 0.00 0.00 0.00 0.00 0.00 0.00 0.00 0.00 0.00 0.00 0.00 0.00 0.00 0.00 0.00 0.00 0.00 0.00 0.00 0.00 0.00
0.00 0.00 0.00 0.00 0.00 0.00 0.00 0.00 0.00 0.00 0.00 0.00 0.00 0.00 0.00 0.00 0.00 0.00 0.00 0.00 0.00 0.00 0.00 0.00 0.00 0.00 0.00 0.00 0.00 0.00 0.00 0.00 0.00 0.00 0.00 0.00 0.00 0.00 0.00 0.00 0.00 0.00 0.00 0.00 0.00
0.00 0.00 0.00 0.00 0.00 0.00 0.00 0.00 0.00 0.00 0.00 0.00 0.00 0.00 0.00 0.00 0.00 0.00 0.00 0.00 0.00 0.00 0.00 0.00 0.00 0.00 0.00 0.00 0.00 0.00 0.00 0.00 0.00 0.00 0.00 0.00 0.00 0.00 0.00 0.00 0.00 0.00 0.00 0.00 0.00
0.00 0.00 0.00 0.00 0.00 0.00 0.00 0.00 0.00 0.00 0.00 0.00 0.00 0.00 0.00 0.00 0.00 0.00 0.00 0.00 0.00 0.00 0.00 0.00 0.00 0.00 0.00 0.00 0.00 0.00 0.00 0.00 0.00 0.00 0.00 0.00 0.00 0.00 0.00 0.00 0.00 0.00 0.00 0.00 0.00
0.00 0.00 0.00 0.00 0.00 0.00 0.00 0.00 0.00 0.00 0.00 0.00 0.00 0.00 0.00 0.00 0.00 0.00 0.00 0.00 0.00 0.00 0.00 0.00 0.00 0.00 0.00 0.00 0.00 0.00 0.00 0.00 0.00 0.00 0.00 0.00 0.00 0.00 0.00 0.00 0.00 0.00 0.00 0.00 0.00
0.00 0.00 0.00 0.00 0.00 0.00 0.00 0.00 0.00 0.00 0.00 0.00 0.00 0.00 0.00 0.00 0.00 0.00 0.00 0.00 0.00 0.00 0.00 0.00 0.00 0.00 0.00 0.00 0.00 0.00 0.00 0.00 0.00 0.00 0.00 0.00 0.00 0.00 0.00 0.00 0.00 0.00 0.00 0.00 0.00
0.00 0.00 0.00 0.00 0.00 0.00 0.00 0.00 0.00 0.00 0.00 0.00 0.00 0.00 0.00 0.00 0.00 0.00 0.00 0.00 0.00 0.00 0.00 0.00 0.00 0.00 0.00 0.00 0.00 0.00 0.00 0.00 0.00 0.00 0.00 0.00 0.00 0.00 0.00 0.00 0.00 0.00 0.00 0.00 0.00
0.00 0.00 0.00 0.00 0.00 0.00 0.00 0.00 0.00 0.00 0.00 0.00 0.00 0.00 0.00 0.00 0.00 0.00 0.00 0.00 0.00 0.00 0.00 0.00 0.00 0.00 0.00 0.00 0.00 0.00 0.00 0.00 0.00 0.00 0.00 0.00 0.00 0.00 0.00 0.00 0.00 0.00 0.00 0.00 0.00
0.00 0.00 0.00 0.00 0.00 0.00 0.00 0.00 0.00 0.00 0.00 0.00 0.00 0.00 0.00 0.00 0.00 0.00 0.00 0.00 0.00 0.00 0.00 0.00 0.00 0.00 0.00 0.00 0.00 0.00 0.00 0.00 0.00 0.00 0.00 0.00 0.00 0.00 0.00 0.00 0.00 0.00 0.00 0.00 0.00
0.00 0.00 0.00 0.00 0.00 0.00 0.00 0.00 0.00 0.00 0.00 0.00 0.00 0.00 0.00 0.00 0.00 0.00 0.00 0.00 0.00 0.00 0.00 0.00 0.00 0.00 0.00 0.00 0.00 0.00 0.00 0.00 0.00 0.00 0.00 0.00 0.00 0.00 0.00 0.00 0.00 0.00 0.00 0.00 0.00
0.00 0.00 0.00 0.00 0.00 0.00 0.00 0.00 0.00 0.00 0.00 0.00 0.00 0.00 0.00 0.00 0.00 0.00 0.00 0.00 0.00 0.00 0.00 0.00 0.00 0.00 0.00 0.00 0.00 0.00 0.00 0.00 0.00 0.00 0.00 0.00 0.00 0.00 0.00 0.00 0.00 0.00 0.00 0.00 0.00
0.00 0.00 0.00 0.00 0.00 0.00 0.00 0.00 0.00 0.00 0.00 0.00 0.00 0.00 0.00 0.00 0.00 0.00 0.00 0.00 0.00 0.00 0.00 0.00 0.00 0.00 0.00 0.00 0.00 0.00 0.00 0.00 0.00 0.00 0.00 0.00 0.00 0.00 0.00 0.00 0.00 0.00 0.00 0.00 0.00
0.00 0.00 0.00 0.00 0.00 0.00 0.00 0.00 0.00 0.00 0.00 0.00 0.00 0.00 0.00 0.00 0.00 0.00 0.00 0.00 0.00 0.00 0.00 0.00 0.00 0.00 0.00 0.00 0.00 0.00 0.00 0.00 0.00 0.00 0.00 0.00 0.00 0.00 0.00 0.00 0.00 0.00 0.00 0.00 0.00
0.00 0.00 0.00 0.00 0.00 0.00 0.00 0.00 0.00 0.00 0.00 0.00 0.00 0.00 0.00 0.00 0.00 0.00 0.00 0.00 0.00 0.00 0.00 0.00 0.00 0.00 0.00 0.00 0.00 0.00 0.00 0.00 0.00 0.00 0.00 0.00 0.00 0.00 0.00 0.00 0.00 0.00 0.00 0.00 0.00
0.00 0.00 0.00 0.00 0.00 0.00 0.00 0.00 0.00 0.00 0.00 0.00 0.00 0.00 0.00 0.00 0.00 0.00 0.00 0.00 0.00 0.00 0.00 0.00 0.00 0.00 0.00 0.00 0.00 0.00 0.00 0.00 0.00 0.00 0.00 0.00 0.00 0.00 0.00 0.00 0.00 0.00 0.00 0.00 0.00
0.00 0.00 0.00 0.00 0.00 0.00 0.00 0.00 0.00 0.00 0.00 0.00 0.00 0.00 0.00 0.00 0.00 0.00 0.00 0.00 0.00 0.00 0.00 0.00 0.00 0.00 0.00 0.00 0.00 0.00 0.00 0.00 0.00 0.00 0.00 0.00 0.00 0.00 0.00 0.00 0.00 0.00 0.00 0.00 0.00
MSLP
1016.90 1016.63 1016.23 1016.01 1015.64 1015.27 1014.97 1014.66 1014.24 1014.08 1013.61 1013.26 1012.84 1012.12 1012.13 1011.66 1011.14 1010.41 1007.87 1007.88 1007.52 1007.53 1007.56 1005.90 1005.27 1004.13 1003.38 1002.12 1001.50 1000.50 999.17 999.20 999.72 999.95 1000.07 1000.58 1000.63 1001.97 1002.58 1003.41 1003.93 1004.43 1004.75 1005.78 1007.67
1017.21 1016.85 1016.44 1016.11 1015.50 1015.31 1015.02 1014.55 1014.21 1013.83 1013.56 1013.03 1012.67 1012.03 1012.01 1011.57 1010.22 1007.76 1008.07 1007.63 1007.81 1007.68 1006.64 1005.34 1004.28 1003.53 1002.23 1001.46 1000.81 1000.16 998.75 999.61 1000.54 1000.72 1000.61 1000.74 1001.03 1001.35 1001.73 1002.99 1004.16 1004.94 1005.68 1006.72 1007.73
1017.40 1017.07 1016.46 1016.08 1015.71 1015.44 1014.97 1014.60 1014.22 1013.67 1013.26 1012.78 1012.48 1012.11 1011.90 1011.45 1008.81 1007.10 1008.10 1007.88 1007.89 1007.77 1006.14 1005.18 1004.23 1003.21 1001.70 1001.29 1000.71 999.76 999.19 1000.46 1000.79 1001.39 1001.03 1000.51 1000.48 1001.15 1001.12 1001.31 1002.82 1004.33 1005.87 1006.89 1007.59
1017.71 1017.08 1016.67 1016.31 1015.87 1015.54 1015.04 1014.50 1014.06 1013.62 1013.15 1012.67 1012.28 1011.74 1011.65 1010.38 1007.12 1007.44 1008.05 1008.05 1007.94 1007.35 1005.74 1004.92 1003.97 1002.93 1001.62 1001.33 1001.44 1000.61 1001.02 1001.17 1000.94 1001.17 1001.06 1000.80 1000.79 1000.74 1001.35 1001.64 1002.94 1003.86 1005.55 1006.59 1007.26
1017.82 1017.23 1016.88 1016.29 1015.86 1015.35 1014.95 1014.13 1013.71 1013.48 1012.96 1012.43 1012.09 1011.75 1011.04 1008.20 1006.54 1007.68 1008.07 1008.00 1007.49 1006.33 1005.30 1004.40 1003.54 1002.67 1001.80 1001.69 1001.91 1001.26 1001.33 1001.46 1001.18 1001.11 1001.22 1001.28 1000.89 1001.06 1001.42 1002.02 1003.41 1004.13 1005.31 1006.24 1006.84
1017.91 1017.33 1016.94 1016.46 1015.94 1015.25 1014.70 1014.17 1013.60 1013.13 1012.90 1012.21 1011.88 1011.90 1009.88 1007.03 1006.34 1007.14 1006.84 1007.18 1006.17 1005.67 1005.05 1004.42 1003.43 1003.36 1002.42 1002.33 1002.04 1001.69 1001.74 1001.35 1001.08 1000.91 1001.05 1001.22 1000.58 1001.06 1001.98 1002.63 1003.43 1004.37 1005.18 1005.85 1006.50
1018.07 1017.53 1017.11 1016.43 1015.89 1015.25 1014.75 1013.99 1013.49 1012.94 1012.53 1012.01 1011.76 1011.25 1008.48 1006.42 1006.37 1006.46 1006.57 1005.98 1005.95 1005.29 1004.81 1004.79 1004.39 1003.83 1002.79 1002.31 1002.39 1002.20 1001.70 1000.71 1000.55 1000.68 1000.56 1000.74 1000.34 1000.61 1001.94 1002.55 1003.55 1004.33 1004.99 1005.61 1006.45
1018.36 1017.78 1017.17 1016.59 1016.01 1015.26 1014.44 1013.72 1013.25 1012.75 1012.21 1012.04 1011.85 1010.52 1006.81 1006.36 1006.25 1006.57 1006.01 1006.06 1006.03 1005.76 1005.05 1005.12 1004.81 1003.75 1003.30 1002.63 1002.49 1001.82 1001.02 1000.02 999.72 1000.60 1000.44 1000.57 1000.09 1001.11 1001.89 1002.23 1003.43 1004.28 1004.90 1005.67 1006.57
1018.36 1017.80 1017.21 1016.58 1016.01 1015.27 1014.41 1013.57 1012.77 1012.36 1012.11 1011.80 1011.21 1009.04 1005.75 1007.18 1006.25 1005.71 1005.67 1005.45 1005.61 1005.64 1005.48 1005.46 1004.68 1003.30 1002.74 1002.47 1001.33 1000.69 999.93 999.42 999.59 1000.77 1000.76 1000.60 1000.03 1001.05 1001.53 1002.06 1003.31 1004.33 1005.05 1005.87 1006.64
1018.24 1017.68 1017.12 1016.57 1015.75 1015.02 1014.14 1013.56 1012.68 1012.56 1012.12 1010.71 1009.52 1008.03 1005.81 1005.09 1005.10 1005.29 1005.65 1005.67 1005.31 1005.31 1005.17 1004.93 1003.81 1002.75 1002.09 1001.24 999.98 999.45 999.51 999.49 1000.13 1000.44 1000.75 1000.27 1000.03 1000.24 1001.39 1001.83 1002.83 1004.08 1005.06 1005.87 1006.57
1018.21 1017.61 1016.98 1016.27 1015.57 1014.95 1013.41 1012.18 1012.09 1011.03 1009.39 1006.77 1006.02 1005.17 1005.05 1005.15 1005.69 1005.32 1005.62 1005.51 1005.21 1005.01 1004.11 1004.02 1002.92 1001.68 1000.92 1000.99 1001.12 1001.12 1000.73 1000.32 1000.25 1000.68 1001.24 1000.13 1000.38 1000.20 1000.82 1001.52 1002.17 1003.37 1004.77 1005.57 1006.26
1018.34 1017.59 1016.78 1015.99 1015.27 1014.55 1014.04 1010.34 1010.15 1010.20 1007.79 1005.52 1005.36 1005.11 1005.22 1004.82 1004.46 1004.63 1005.15 1005.00 1004.65 1003.98 1003.64 1003.49 1002.45 1001.42 1002.15 1002.49 1002.17 1001.61 1001.12 1000.53 1000.40 1000.99 1001.24 1000.37 999.91 999.91 1000.10 1000.99 1001.49 1002.66 1003.98 1005.08 1005.77
1018.32 1017.60 1016.76 1015.79 1014.93 1013.72 1011.39 1010.00 1010.16 1009.67 1007.61 1004.29 1004.47 1004.30 1004.38 1004.82 1003.61 1003.75 1004.56 1004.18 1003.77 1003.46 1002.92 1002.33 1001.90 1002.67 1002.99 1002.57 1002.22 1001.51 1001.03 1000.49 1000.81 1000.70 1000.58 1000.17 999.63 999.45 999.80 1000.78 1001.48 1002.10 1002.74 1004.19 1004.99
1018.30 1017.66 1016.87 1015.75 1014.63 1011.83 1010.40 1010.43 1010.06 1009.79 1006.80 1003.67 1003.70 1003.31 1003.48 1003.98 1003.32 1003.09 1003.93 1003.60 1003.21 1002.71 1002.48 1002.37 1001.93 1002.73 1002.77 1002.32 1002.10 1001.09 1001.02 1001.45 1001.27 1000.85 999.57 999.92 998.95 998.78 999.16 999.86 1000.86 1001.75 1002.51 1003.16 1004.62
1018.28 1017.63 1016.94 1016.91 1014.40 1011.21 1010.69 1010.39 1010.16 1009.55 1005.13 1002.49 1002.89 1003.30 1002.87 1003.23 1001.80 1002.87 1003.46 1003.41 1002.86 1002.65 1002.72 1001.86 1002.31 1002.34 1002.37 1001.94 1002.19 1001.32 1001.79 1001.76 1001.40 1000.87 1000.08 999.45 999.19 998.10 998.99 999.40 999.74 1000.81 1001.93 1002.85 1004.06
1017.96 1017.46 1016.89 1014.58 1013.69 1011.22 1010.93 1010.48 1010.09 1008.10 1003.47 1002.17 1002.34 1002.65 1002.64 1002.64 1002.16 1002.39 1003.08 1003.42 1003.12 1002.77 1002.80 1002.09 1002.51 1002.37 1002.03 1002.19 1002.41 1001.98 1002.24 1001.80 1001.40 1000.59 999.44 999.02 998.94 998.37 998.26 999.36 999.94 1000.84 1002.09 1002.69 1003.76
1017.42 1016.95 1016.86 1014.40 1011.45 1011.31 1010.97 1010.04 1008.05 1004.86 1002.52 1001.54 1001.59 1001.55 1001.62 1001.68 1001.84 1002.58 1002.54 1002.87 1002.50 1002.53 1001.99 1002.05 1001.89 1002.18 1002.24 1001.94 1002.22 1002.24 1001.74 1000.84 1000.18 999.23 998.39 998.86 999.18 998.79 998.98 999.62 1000.45 1001.07 1001.83 1002.77 1003.67
1016.63 1016.30 1014.53 1013.34 1012.04 1011.83 1010.83 1009.11 1005.98 1002.99 1001.77 1001.78 1001.25 1001.06 1000.70 1000.74 1001.10 1001.81 1001.97 1001.98 1002.20 1001.68 1000.70 1000.79 1000.61 1001.12 1001.79 1001.76 1001.30 1001.76 1001.49 1000.49 999.43 998.64 998.91 999.48 998.66 998.82 999.56 999.98 1000.65 1001.60 1002.03 1002.74 1003.72
1015.94 1013.90 1012.66 1011.86 1012.05 1011.84 1010.17 1007.37 1004.41 1002.46 1002.05 1002.35 1001.91 1001.08 1000.61 1000.30 1000.55 1001.12 1001.19 1001.11 1001.06 1001.35 1001.14 1000.17 1000.18 1000.98 1001.46 1001.47 1001.74 1001.08 1001.05 1000.95 1000.46 999.93 999.36 998.69 998.19 998.59 999.20 999.67 1000.24 1001.34 1002.22 1002.82 1003.73
1015.49 1012.20 1010.96 1011.65 1011.78 1011.25 1009.32 1005.95 1003.72 1003.81 1004.05 1003.30 1001.84 1001.07 1000.24 1000.44 1000.89 1000.60 1000.63 1000.51 1000.47 1000.80 1001.39 1000.56 1000.55 1000.72 1001.39 1001.75 1001.52 1001.11 1000.95 1000.87 1000.59 1000.06 999.36 998.38 998.32 998.23 999.12 999.31 1000.31 1001.72 1002.41 1003.25 1004.02
1014.79 1011.14 1011.25 1011.18 1011.14 1009.90 1007.25 1005.30 1004.27 1004.62 1004.86 1003.77 1002.32 1001.94 1001.05 1000.12 1000.52 1000.04 999.91 1000.23 1000.26 1000.53 1001.32 1001.15 1001.43 1000.55 1001.33 1001.26 1000.34 1000.95 1001.10 1000.85 1000.07 999.68 999.40 999.00 999.67 1000.13 999.66 999.78 1000.01 1001.27 1002.52 1003.67 1004.26
1013.01 1009.97 1010.72 1010.83 1009.82 1008.03 1006.23 1004.99 1004.67 1004.55 1005.11 1004.17 1003.88 1002.57 1002.09 1001.77 1001.22 1000.26 1000.06 1000.02 1000.86 1000.78 1001.13 1001.34 1001.22 1000.88 1000.41 999.98 1000.31 1000.04 1000.05 1000.28 1000.02 1000.07 999.86 999.44 999.05 999.30 999.24 999.82 1000.11 1001.18 1002.74 1003.77 1004.47
1012.31 1009.88 1010.25 1010.10 1007.82 1006.26 1005.76 1004.84 1005.02 1005.08 1004.71 1004.32 1003.79 1003.90 1003.48 1002.65 1002.06 1001.53 1000.80 1001.36 1002.10 1001.74 1001.46 1001.52 1001.63 1001.07 1000.72 1000.08 1000.42 1000.46 1000.19 1000.39 1000.36 1000.52 1000.00 999.33 999.03 999.55 999.45 1000.04 1000.57 1001.34 1003.04 1004.28 1004.94
1013.00 1009.65 1009.33 1009.41 1007.58 1006.93 1005.59 1005.84 1005.61 1005.52 1005.02 1004.65 1004.30 1004.51 1004.00 1003.46 1003.33 1002.42 1001.96 1002.42 1002.87 1002.49 1002.90 1002.38 1001.77 1001.21 999.81 1000.60 1000.05 999.93 1000.14 1000.06 1000.27 1000.14 999.82 999.38 999.15 999.12 998.80 999.54 1000.94 1001.74 1003.60 1004.61 1005.40
1012.54 1009.76 1009.63 1008.05 1007.43 1007.09 1006.32 1006.02 1005.59 1005.59 1006.05 1005.83 1005.13 1004.99 1004.37 1003.84 1003.41 1003.35 1002.59 1002.59 1003.37 1003.54 1003.49 1003.17 1002.48 1001.70 1000.90 1000.29 999.92 999.38 999.28 999.46 999.73 1000.06 999.76 999.12 1001.44 1000.43 999.81 1000.79 1001.11 1002.13 1004.04 1004.90 1005.74
1013.61 1011.67 1010.33 1008.93 1008.96 1007.97 1007.20 1006.61 1006.29 1005.51 1005.75 1005.76 1005.55 1005.02 1004.92 1004.76 1004.28 1003.78 1003.27 1003.46 1003.04 1003.30 1003.34 1003.37 1002.92 1002.42 1001.00 1000.30 1000.01 999.65 999.54 999.59 999.26 999.61 999.51 999.04 999.33 999.37 1000.41 1000.96 1001.61 1002.77 1004.19 1005.09 1005.80
1014.90 1013.40 1012.42 1009.78 1009.06 1008.19 1006.76 1006.89 1006.84 1006.42 1006.68 1006.44 1005.82 1005.53 1005.84 1005.75 1005.26 1005.29 1005.19 1005.17 1004.84 1004.58 1004.00 1003.63 1003.36 1002.74 1001.59 1000.78 999.95 999.76 999.48 999.21 999.15 999.24 999.09 999.03 999.66 1000.19 1000.61 1001.66 1002.68 1003.28 1004.08 1005.03 1005.82
Thickness
5740 5744 5750 5754 5760 5764 5768 5773 5779 5782 5788 5793 5799 5809 5809 5815 5820 5829 5842 5847 5853 5855 5857 5868 5868 5874 5879 5876 5885 5894 5865 5853 5854 5855 5862 5877 5868 5867 5870 5848 5849 5849 5843 5841 5829
5736 5741 5747 5752 5760 5763 5768 5774 5778 5784 5789 5795 5800 5809 5810 5816 5829 5845 5848 5853 5852 5854 5859 5858 5857 5870 5868 5873 5882 5871 5868 5858 5867 5866 5860 5868 5865 5864 5859 5845 5836 5836 5842 5837 5828
5732 5737 5745 5751 5756 5761 5767 5772 5777 5785 5791 5797 5802 5806 5811 5815 5833 5843 5847 5851 5852 5854 5866 5868 5870 5868 5864 5875 5876 5881 5862 5868 5868 5868 5873 5872 5873 5873 5864 5855 5850 5834 5829 5829 5825
5727 5735 5741 5747 5753 5759 5765 5771 5778 5784 5791 5797 5802 5809 5812 5823 5818 5846 5848 5849 5852 5857 5864 5861 5861 5854 5857 5853 5870 5856 5867 5867 5871 5874 5870 5864 5875 5868 5865 5863 5865 5856 5842 5833 5825
5724 5731 5737 5745 5751 5758 5764 5773 5779 5784 5791 5798 5803 5808 5818 5829 5833 5846 5847 5849 5854 5862 5857 5856 5853 5856 5848 5858 5859 5855 5861 5867 5874 5874 5871 5872 5865 5863 5863 5872 5866 5858 5845 5834 5829
5719 5727 5734 5741 5748 5757 5764 5771 5779 5786 5790 5798 5803 5805 5821 5815 5854 5849 5854 5852 5860 5860 5857 5860 5859 5862 5856 5853 5851 5863 5861 5865 5873 5872 5872 5859 5867 5867 5861 5868 5858 5850 5842 5839 5832
5714 5722 5729 5738 5746 5754 5761 5771 5778 5785 5791 5797 5802 5810 5820 5827 5852 5854 5854 5857 5862 5862 5852 5861 5864 5854 5861 5849 5865 5860 5846 5866 5870 5872 5868 5874 5854 5856 5866 5866 5850 5846 5843 5841 5833
5706 5715 5724 5733 5742 5751 5761 5770 5777 5784 5791 5794 5799 5810 5818 5849 5852 5848 5857 5851 5859 5862 5862 5864 5865 5859 5852 5865 5854 5846 5856 5842 5875 5869 5874 5869 5838 5860 5869 5862 5846 5844 5842 5838 5831
5702 5710 5719 5729 5738 5748 5758 5769 5778 5784 5789 5794 5801 5812 5819 5841 5835 5852 5856 5844 5850 5854 5857 5859 5858 5852 5856 5837 5839 5850 5835 5851 5857 5868 5862 5860 5849 5861 5871 5861 5845 5840 5838 5832 5827
5697 5706 5715 5724 5735 5746 5757 5765 5774 5778 5785 5797 5808 5802 5826 5825 5843 5848 5853 5849 5840 5841 5837 5838 5844 5837 5844 5843 5826 5846 5846 5854 5839 5857 5857 5853 5856 5868 5865 5860 5848 5841 5835 5829 5823
5691 5700 5710 5720 5731 5742 5758 5774 5776 5778 5794 5808 5815 5818 5823 5838 5843 5837 5844 5838 5838 5831 5817 5833 5824 5823 5845 5851 5846 5842 5837 5835 5850 5860 5843 5851 5848 5859 5865 5859 5851 5843 5833 5828 5823
5683 5694 5706 5717 5728 5739 5747 5774 5777 5778 5779 5818 5818 5819 5826 5836 5819 5831 5844 5820 5820 5809 5827 5820 5814 5845 5843 5838 5833 5834 5829 5833 5851 5854 5844 5846 5847 5862 5866 5859 5858 5847 5837 5829 5827
5676 5687 5700 5713 5725 5740 5761 5770 5777 5783 5774 5809 5816 5814 5818 5824 5820 5824 5833 5828 5818 5813 5821 5817 5829 5836 5826 5826 5822 5831 5828 5836 5830 5847 5854 5846 5839 5850 5863 5860 5857 5855 5854 5841 5833
5667 5678 5691 5707 5722 5748 5754 5765 5772 5777 5762 5791 5798 5813 5823 5822 5810 5844 5840 5830 5822 5814 5823 5821 5841 5824 5820 5820 5830 5820 5846 5836 5830 5827 5823 5852 5814 5846 5858 5852 5849 5848 5847 5844 5833
5659 5670 5683 5690 5716 5737 5749 5759 5767 5765 5739 5800 5798 5830 5827 5809 5829 5822 5844 5829 5811 5815 5819 5816 5817 5817 5812 5824 5833 5827 5841 5832 5832 5826 5831 5838 5824 5852 5859 5842 5853 5850 5846 5844 5837
5656 5665 5676 5698 5710 5735 5743 5753 5753 5734 5739 5780 5800 5796 5798 5807 5816 5824 5821 5832 5831 5816 5818 5821 5837 5829 5828 5833 5832 5840 5826 5828 5831 5830 5810 5837 5831 5835 5850 5842 5847 5846 5842 5842 5836
5658 5666 5672 5691 5717 5727 5736 5738 5725 5732 5789 5779 5784 5801 5800 5796 5803 5802 5802 5798 5796 5782 5791 5810 5816 5829 5834 5819 5830 5825 5815 5796 5798 5809 5812 5840 5822 5833 5853 5851 5845 5840 5839 5838 5835
5662 5668 5686 5696 5710 5717 5724 5719 5709 5767 5776 5788 5794 5799 5792 5805 5804 5801 5797 5792 5809 5812 5810 5795 5793 5821 5832 5821 5816 5814 5816 5803 5783 5802 5805 5829 5809 5828 5851 5855 5850 5842 5841 5838 5830
5663 5683 5695 5705 5706 5712 5711 5705 5734 5766 5773 5770 5780 5777 5785 5802 5803 5798 5798 5800 5813 5817 5793 5805 5804 5829 5828 5833 5827 5816 5803 5833 5809 5823 5811 5830 5845 5853 5851 5847 5844 5837 5833 5830 5826
5661 5688 5699 5701 5704 5705 5704 5714 5748 5757 5758 5765 5759 5781 5777 5786 5783 5792 5794 5814 5812 5824 5825 5817 5790 5821 5820 5827 5828 5821 5834 5799 5808 5774 5775 5819 5823 5824 5828 5836 5833 5825 5825 5823 5823
5660 5683 5690 5698 5702 5699 5704 5726 5743 5752 5750 5751 5764 5764 5777 5789 5790 5794 5800 5809 5822 5819 5821 5816 5799 5806 5811 5802 5809 5807 5800 5810 5823 5821 5789 5783 5789 5804 5827 5838 5836 5830 5826 5819 5818
5668 5676 5687 5693 5684 5706 5711 5734 5727 5744 5746 5752 5755 5768 5767 5774 5777 5790 5793 5805 5818 5820 5799 5814 5802 5783 5800 5833 5832 5827 5817 5815 5795 5790 5811 5807 5812 5843 5846 5841 5842 5833 5825 5822 5819
5664 5678 5684 5687 5683 5704 5718 5727 5729 5731 5738 5744 5748 5755 5764 5764 5761 5779 5792 5797 5803 5804 5800 5808 5787 5771 5781 5812 5815 5802 5814 5815 5814 5809 5792 5772 5808 5828 5841 5837 5836 5830 5822 5815 5813
5650 5662 5672 5676 5694 5691 5703 5701 5707 5727 5732 5741 5743 5748 5751 5751 5764 5764 5775 5783 5792 5797 5783 5798 5790 5781 5788 5775 5803 5791 5801 5812 5805 5790 5797 5809 5824 5835 5840 5834 5826 5827 5815 5810 5806
5647 5657 5663 5667 5678 5684 5695 5699 5701 5702 5716 5725 5725 5733 5739 5736 5748 5748 5773 5772 5779 5769 5781 5783 5764 5785 5797 5806 5809 5812 5811 5812 5801 5802 5792 5815 5769 5794 5818 5816 5823 5825 5810 5803 5798
5621 5634 5652 5660 5661 5671 5668 5683 5688 5704 5707 5707 5711 5729 5734 5728 5740 5742 5757 5760 5765 5774 5774 5780 5758 5773 5781 5803 5804 5796 5806 5806 5813 5809 5809 5820 5811 5838 5826 5827 5819 5813 5804 5798 5795
5607 5622 5626 5638 5652 5659 5675 5677 5683 5694 5698 5706 5713 5719 5717 5725 5736 5741 5750 5751 5754 5752 5758 5762 5761 5758 5754 5791 5797 5776 5795 5804 5810 5817 5817 5801 5812 5819 5813 5809 5806 5806 5804 5797 5794